[Iaude] MPEC F115: 2024 FN3 [a=1.02,e=0.06,i=13.4,H=25.2]

mpec at cfa.harvard.edu mpec at cfa.harvard.edu
Sun Mar 31 08:57:58 EDT 2024


M.P.E.C. 2024-F115                               Issued 2024 March 31, 12:56 UT

     The Minor Planet Electronic Circulars contain information on unusual
         minor planets, routine data on comets and natural satellites,
         and occasional editorial announcements.  They are published
    on behalf of Division F of the International Astronomical Union by the
          Minor Planet Center, Smithsonian Astrophysical Observatory,
                          Cambridge, MA 02138, U.S.A.
			  
             Prepared using the Tamkin Foundation Computer Network

                              MPC at CFA.HARVARD.EDU
            URL https://www.minorplanetcenter.net/    ISSN 1523-6714

                                    2024 FN3                                    


Observations:
     K24F03N*KC2024 03 29.86987 12 03 16.55 +44 11 50.8          19.7 GXEF115L51
     K24F03N KC2024 03 29.87119 12 03 15.26 +44 11 33.6          19.7 GXEF115L51
     K24F03N KC2024 03 29.87250 12 03 14.06 +44 11 15.4          19.5 GXEF115L51
     K24F03N KC2024 03 29.89920 12 02 49.20 +44 05 09.9          19.8 GXEF115L51
     K24F03N KC2024 03 29.90128 12 02 47.27 +44 04 41.8          19.9 GXEF115L51
     K24F03N KC2024 03 29.90336 12 02 45.35 +44 04 13.5          19.6 GXEF115L51
     K24F03N KC2024 03 29.96319512 01 57.067+43 50 10.36         20.3 GVEF115J95
     K24F03N KC2024 03 29.96741412 01 53.210+43 49 12.25         19.9 GVEF115J95
     K24F03N KC2024 03 29.97154212 01 49.409+43 48 16.09         20.1 GVEF115J95
     K24F03N KB2024 03 30.13492 11 59 38.976+43 10 46.20         20.0 RZEF115H36
     K24F03N KB2024 03 30.14468 11 59 30.125+43 08 34.69         19.7 RZEF115H36
     K24F03N mC2024 03 30.14974911 59 28.964+43 07 26.65         22.04GVEF115I52
     K24F03N mC2024 03 30.15000011 59 28.640+43 07 20.86         20.87GVEF115I52
     K24F03N mC2024 03 30.15025711 59 28.482+43 07 17.98               VEF115I52
     K24F03N mC2024 03 30.15050811 59 28.230+43 07 15.71               VEF115I52
     K24F03N KB2024 03 30.15443 11 59 21.406+43 06 23.76         20.0 RZEF115H36
     K24F03N  C2024 03 30.17247011 59 07.648+43 02 17.69         19.9 GVEF115H01
     K24F03N  C2024 03 30.17649311 59 03.988+43 01 22.45         19.7 GVEF115H01
     K24F03N  C2024 03 30.18745711 58 54.012+42 58 52.77         20.3 GVEF115H01
     K24F03N  C2024 03 30.19675311 58 45.519+42 56 45.20         19.9 GVEF115H01
     K24F03N  C2024 03 30.42304411 55 30.102+42 04 06.19         20.21GVEF115F52
     K24F03N  C2024 03 30.43153811 55 22.345+42 02 04.58         20.81GVEF115F51
     K24F03N  C2024 03 30.43311711 55 20.882+42 01 41.61         20.47GVEF115F52
     K24F03N  C2024 03 30.44231911 55 12.464+41 59 28.68         20.34GVEF115F51
     K24F03N  C2024 03 30.45297911 55 02.730+41 56 53.92         20.70GVEF115F51
     K24F03N  C2024 03 30.45299011 55 02.687+41 56 53.39         20.81GVEF115F52
     K24F03N  C2024 03 30.46357411 54 52.992+41 54 18.26         20.49GVEF115F51
     K24F03N KC2024 03 30.88767511 49 21.888+40 09 15.55         19.7 GVEF115J95
     K24F03N KC2024 03 30.89873311 49 12.475+40 06 33.01         20.1 GVEF115J95
     K24F03N KC2024 03 30.90500211 49 07.123+40 05 01.57         19.9 GVEF115J95
     K24F03N KC2024 03 30.91995 11 48 47.84 +40 01 43.8          19.9 GXEF115L51
     K24F03N KC2024 03 30.92203 11 48 46.03 +40 01 12.7          20.0 GXEF115L51
     K24F03N KC2024 03 30.92409 11 48 44.26 +40 00 41.4          19.9 GXEF115L51
     K24F03N KC2024 03 31.07666311 46 57.40 +39 22 25.9          20.4 GVEF115H21
     K24F03N KC2024 03 31.07928411 46 55.21 +39 21 47.4          20.2 GVEF115H21
     K24F03N KC2024 03 31.08452911 46 50.83 +39 20 30.7          20.5 GVEF115H21
     K24F03N KC2024 03 31.08846311 46 47.54 +39 19 32.7          20.2 GVEF115H21

Observer details:
F51 Pan-STARRS 1, Haleakala.  Observers J. Herman, T. Lowe, P. Minguez, A.
    Schultz, I. Smith.  Measurers K. Chambers, T. de Boer, J. Fairlamb, H.
    Gao, M. Huber, C.-C. Lin, E. Magnier, Y. Ramanjooloo, R. Wainscoat, R.
    Weryk.  1.8-m Ritchey-Chretien + CCD.
F52 Pan-STARRS 2, Haleakala.  Observers J. Herman, T. Lowe, P. Minguez, A.
    Schultz, I. Smith.  Measurers K. Chambers, T. de Boer, J. Fairlamb, H.
    Gao, M. Huber, C.-C. Lin, E. Magnier, Y. Ramanjooloo, R. Wainscoat, R.
    Weryk.  1.8-m Ritchey-Chretien + CCD.
H01 Magdalena Ridge Observatory, Socorro.  Observers W. H. Ryan, E. V. Ryan.
    Measurer W. H. Ryan.  2.4-m f/8.9 Ritchey-Chretien + CCD.
H21 Astronomical Research Observatory, Westfield.  Observer R. Holmes.
    Measurers T. Linder, R. Holmes, L. Horn.  0.76-m f/3.0 astrograph + CCD.
H36 Sandlot Observatory, Scranton.  Observer G. Hug.  0.56-m f/4.8 reflector +
    CMO.
I52 Steward Observatory, Mt. Lemmon Station.  Observers T. Beuden, H.
    Groeller.  Measurers T. Beuden, V. F. Carvajal, D. Fay, J. B. Fazekas, D.
    C. Fuls, A. R. Gibbs, A. D. Grauer, H. Groeller, J. K. Hogan, R. A.
    Kowalski, S. M. Larson, G. J. Leonard, D. Rankin, R. L. Seaman, F. C.
    Shelly, K. W. Wierzchos.  1.0-m prime focus + CCD.
J95 Great Shefford.  Observer P. Birtwhistle.  0.41-m f/6.3 Schmidt-Cassegrain
    + CCD.
L51 MARGO, Nauchnyi.  Observer G. Borisov.  0.50-m f/1.9 reflector + CCD.

Orbital elements:
2024 FN3                                                 Earth MOID = 0.0026 AU
Epoch 2024 Mar. 31.0 TT = JDT 2460400.5                 Veres                   
M  95.04052              (2000.0)            P               Q                  
n   0.95200026     Peri.   71.77003     +0.05362303     -0.99662126             
a   1.0233983      Node    15.55481     +0.80592141     +0.00640739             
e   0.0599873      Incl.   13.41514     +0.58958906     +0.08188415             
P   1.04           H   25.25          G   0.15           U   7                  
Residuals in seconds of arc
240329 L51  0.7+  0.3-    240330 I52  1.2-  1.2-    240330 F51  0.5+  0.5+
240329 L51  0.0   0.4+    240330 I52  0.4-  0.7-    240330 F51  0.3-  0.5-
240329 L51  0.2+  0.0     240330 I52  0.7-  0.5+    240330 J95  0.1-  0.1+
240329 L51  0.1+  0.7-    240330 H36  0.9+  2.6+    240330 J95  0.3-  0.5-
240329 L51  0.2+  0.2-    240330 H01  0.0   0.0     240330 J95  0.6-  0.0
240329 L51  0.3+  0.1+    240330 H01  0.1-  0.4-    240330 L51  0.0   0.3-
240329 J95  0.1+  0.1-    240330 H01  0.0   0.2-    240330 L51  0.2-  0.1-
240329 J95  0.2+  0.3-    240330 H01  0.2-  0.2-    240330 L51  0.2-  0.3-
240329 J95  0.0   0.2+    240330 F52  0.5-  0.7-    240331 H21  0.1+  0.2+
240330 H36  0.3-  0.9-    240330 F51  0.0   0.2+    240331 H21  0.0   0.0
240330 H36  0.5-  0.4+    240330 F52  0.1-  0.0     240331 H21  0.0   0.1+
240330 I52  0.1-  1.2+    240330 F51  0.2+  0.3+    240331 H21  0.1+  0.2-

Ephemeris:
2024 FN3                 a,e,i = 1.02, 0.06, 13                  q = 0.9620
Date    TT    R. A. (2000) Decl.     Delta      r    Elong.  Phase     V
2024 03 01    17 41 48.3 +63 29 36   0.1344  1.0020    90.9    81.4    23.7
...
2024 03 16    15 51 35.7 +65 28 50   0.08525 1.0172   102.9    72.4    22.5
...
2024 03 24    13 41 14.7 +59 54 44   0.06078 1.0253   116.3    60.6    21.4
...
2024 03 30    12 01 25.1 +43 42 19   0.04805 1.0314   132.0    46.1    20.5
2024 03 31    11 47 48.7 +39 42 20   0.04684 1.0324   134.6    43.5    20.4
2024 04 01    11 35 13.8 +35 24 33   0.04598 1.0334   137.1    41.2    20.2
...
2024 04 07    10 39 10.3 +08 00 12   0.04871 1.0393   141.0    37.3    20.3
...
2024 04 15    10 00 38.0 -16 54 55   0.06870 1.0469   127.9    49.1    21.4
...
2024 04 30    09 37 50.8 -34 55 57   0.1225  1.0597   112.2    61.6    23.0

M. P. C. Staff               (C) Copyright 2024 MPC           M.P.E.C. 2024-F115





More information about the Iaude mailing list